Regional Weather Roundup
Issued by NWS

Home | Current Version | Previous Version | Graphics & Text | Print | Product List | Glossary On
Versions: 1 2 3 4 5 6 7 8 9 10 11 12 13 14 15 16 17 18 19 20 21 22 23 24 25 26 27 28 29 30 31 32 33 34 35 36 37 38 39 40 41 42 43 44 45 46 47 48 49 50
000
ASUS45 KBOI 220310
RWRID
WEATHER ROUNDUP FOR IDAHO
NATIONAL WEATHER SERVICE BOISE ID
900 PM MDT SUN SEP 21 2014

NOTE: "FAIR" INDICATES FEW OR NO CLOUDS BELOW 12000 FEET
WITH NO SIGNIFICANT WEATHER AND/OR OBSTRUCTIONS TO VISIBILITY

IDZ012-014-220400-
SOUTHWEST IDAHO


CITY           SKY/WX    TMP DP  RH WIND       PRES   REMARKS
BOISE          CLOUDY    69  55  60 SE14      30.03R
CALDWELL       CLOUDY    68  52  56 SE14      30.02R
MOUNTAIN HOME  LGT RAIN  62  62 100 E15       30.05R
$$

IDZ016-017-220400-
SOUTHCENTRAL IDAHO


CITY           SKY/WX    TMP DP  RH WIND       PRES   REMARKS
BURLEY         MOCLDY    59  57  93 E5        30.11S
JEROME         CLOUDY    58  56  93 N8        30.11R
TWIN FALLS     MOCLDY    59  55  87 E8        30.11R
$$

IDZ019>023-220400-
SOUTHEAST IDAHO


CITY           SKY/WX    TMP DP  RH WIND       PRES   REMARKS
IDAHO FALLS    LGT RAIN  60  55  83 SW15      30.16R
POCATELLO      LGT RAIN  59  59 100 S3        30.17R
REXBURG        CLOUDY    65  47  52 SW10      30.16R
$$

IDZ006-010-011-018-031-032-220400-
CENTRAL IDAHO MOUNTAINS


CITY           SKY/WX    TMP DP  RH WIND       PRES   REMARKS
MCCALL         CLOUDY    66  43  43 N3        30.09R
HAILEY         MOCLDY    59  54  82 SE7       30.19R
STANLEY          N/A     59  40  49 S3        30.17R
SALMON         CLOUDY    66  45  45 CALM      29.99R
CHALLIS        CLOUDY    70  40  33 SE9       30.07R
$$

IDZ002-004-006-007-026-220400-
NORTHERN IDAHO


CITY           SKY/WX    TMP DP  RH WIND       PRES   REMARKS
LEWISTON       CLOUDY    81  39  22 SW6       29.84S
LOWELL           N/A     65  57  75 CALM      29.88R
COEUR D`ALENE  CLEAR     70  45  40 NE6       29.90R
MULLAN PASS    MOCLDY    66  38  35 NW5       30.14S
$$



USA.gov is the U.S. government's official web portal to all federal, state and local government web resources and services.